{"data":{"norad_id":57418,"intl_designator":"2023-102Q","name":"STARLINK-30221","alt_names":[],"object_type":"PAYLOAD","status":"ACTIVE","operator":null,"country":"US","launch_date":"2023-07-20","launch_site_code":"AFWTR","launch_vehicle":null,"mission":null,"orbit_class":"UNKNOWN","rcs_meters":null,"size_class":null,"mass_kg":null,"dimensions":null,"purposes":["comms"],"wikipedia_slug":null,"has_3d_model":false,"image_url":null,"decayed_at":null,"tle_current":{"epoch":"2026-05-24T09:36:20.311776Z","epoch_age_seconds":130363,"freshness":"FRESH","line1":"1 57418U 23102Q   26144.40023509  .00001909  00000+0  78864-4 0  9998","line2":"2 57418  43.0002 188.2781 0001449 266.7398  93.3288 15.27581727157731","mean_motion":15.27581727,"eccentricity":0.0001449,"inclination_deg":43.0002,"raan_deg":188.2781,"arg_perigee_deg":266.7398,"mean_anomaly_deg":93.3288,"bstar":7.8864e-5,"rev_number":15773,"period_min":94.266642140843,"perigee_km":482.04973966924,"apogee_km":484.03810990124,"semimajor_km":6861.1809247852,"source":"CELESTRAK","updated_at":"2026-05-25T13:38:18.318980Z"}}}